This is the latest recevied weather packets stored in our database for station/object SP1BMW-13. If no packets are shown the sender has not sent any weather packets the latest 10 day(s).
| Time | Temp. | Humidity | Pressure | Rain* | Wind** | Luminosity | Snow |
|---|---|---|---|---|---|---|---|
| 1787810716 | 17.22° C | 70% | 1020.8 hPa | 0 mm | 0.45 m/s, 35° | 107 W/m² | - |
| 1787810655 | 17.22° C | 69% | 1020.6 hPa | 0 mm | 0.45 m/s, 55° | 105 W/m² | - |
| 1787810597 | 17.22° C | 70% | 1020.7 hPa | 0 mm | 0.89 m/s, 79° | 103 W/m² | - |
| 1787810536 | 17.22° C | 69% | 1020.7 hPa | 0 mm | 0.89 m/s, 101° | 101 W/m² | - |
| 1787810477 | 17.22° C | 70% | 1020.8 hPa | 0 mm | 0.89 m/s, 46° | 99 W/m² | - |
| 1787810416 | 17.22° C | 70% | 1020.7 hPa | 0 mm | 0.89 m/s, 82° | 97 W/m² | - |
| 1787810356 | 17.22° C | 69% | 1020.9 hPa | 0 mm | 0.45 m/s, 106° | 96 W/m² | - |
| 1787810296 | 17.22° C | 70% | 1020.6 hPa | 0 mm | 0.89 m/s, 74° | 94 W/m² | - |
| 1787810236 | 17.22° C | 71% | 1020.7 hPa | 0 mm | 0 m/s | 92 W/m² | - |
| 1787810176 | 17.22° C | 70% | 1020.8 hPa | 0 mm | 0 m/s | 91 W/m² | - |
| 1787810116 | 17.22° C | 71% | 1020.8 hPa | 0 mm | 0 m/s | 89 W/m² | - |
| 1787810056 | 17.22° C | 70% | 1021 hPa | 0 mm | 0.45 m/s, 42° | 87 W/m² | - |
| 1787809996 | 17.22° C | 69% | 1020.9 hPa | 0 mm | 1.34 m/s, 43° | 85 W/m² | - |
| 1787809936 | 17.22° C | 70% | 1020.6 hPa | 0 mm | 0.89 m/s, 57° | 83 W/m² | - |
| 1787809876 | 17.22° C | 70% | 1020.9 hPa | 0 mm | 1.34 m/s, 49° | 81 W/m² | - |
| 1787809817 | 17.22° C | 71% | 1020.7 hPa | 0 mm | 0.45 m/s, 51° | 79 W/m² | - |
| 1787809756 | 17.22° C | 70% | 1020.8 hPa | 0 mm | 0 m/s | 77 W/m² | - |
| 1787809696 | 17.22° C | 71% | 1020.8 hPa | 0 mm | 0.45 m/s, 103° | 74 W/m² | - |
| 1787809636 | 16.67° C | 71% | 1020.8 hPa | 0 mm | 0 m/s | 72 W/m² | - |
| 1787809576 | 16.67° C | 71% | 1020.9 hPa | 0 mm | 0.45 m/s, 237° | 70 W/m² | - |
| 1787809516 | 16.67° C | 71% | 1020.7 hPa | 0 mm | 0 m/s | 67 W/m² | - |
| 1787809456 | 16.67° C | 71% | 1021 hPa | 0 mm | 0.45 m/s, 43° | 65 W/m² | - |
| 1787809396 | 16.67° C | 72% | 1021 hPa | 0 mm | 0.45 m/s, 34° | 64 W/m² | - |
| 1787809336 | 16.67° C | 72% | 1020.7 hPa | 0 mm | 0.45 m/s, 43° | 63 W/m² | - |
| 1787809276 | 16.67° C | 72% | 1020.9 hPa | 0 mm | 0.89 m/s, 44° | 61 W/m² | - |
* Rain latest hour (hover to see other rain measurements)
** Current wind speed in m/s (hover to see current wind gust speed)